User: anonymous   Login
Location: Rounton
(54.4000°N, 1.3500°W)
Time: 09:25:56
(UTC+01:00)
Language:

FENGYUN 1C DEB - Orbit

View from above orbital plane
View from above orbital plane
View from above satellite
View from above satellite

Ground track
Ground track

The orbit data is extracted from the following two-line orbital elements,

1 38110U 99025EPF 22176.05366125  .00000829  00000-0  57725-3 0  9992
2 38110  98.1638 252.0153 0201729 263.1054 217.8993 13.91807226456036
Epoch (UTC): 25 June 2022 01:17:16
Eccentricity: 0.0201729
inclination: 98.1638°
perigee height: 775 km
apogee height: 1069 km
right ascension of ascending node: 252.0153°
argument of perigee: 263.1054°
revolutions per day: 13.91807226
mean anomaly at epoch: 217.8993°
orbit number at epoch: 45603

The dashed part of the orbit path shows where the satellite is in the earth's shadow,  

DLR